Location: Carrières
(48.9495°N, 2.0407°E)
Time: 17:44:32
(UTC+00:00)

Cosmos 1328 - Pass Details

Date: 28 January 2023
Orbit: 518 x 543 km, 82.5° (Epoch: 26 March)

Event Time Altitude Azimuth Distance (km) Brightness Sun altitude
Rises 18:41:44 0° 192° (SSW) 2,708 7.6 -19.6°
Reaches altitude 10° 18:43:53 10° 194° (SSW) 1,817 6.7 -19.9°
Maximum altitude 18:47:53 75° 279° (W) 571 3.9 -20.6°
Enters shadow 18:51:23 13° 6° (N) 1,617 6.1 -21.1°
